MB7UEL Weather Reports


Display with metric or nautical units.
time (UTC)temp
F
wind
direction
speed
MPH
gust
MPH
rain 1hr
in
rain 24hr
in
rain mn
in
humidity
%
barometer
mb
20260831050506 57 285 8.0 12.0 0.00 0.12 0.00 1005.0
20260831043506 57 275 8.0 11.0 0.00 0.12 0.00 1004.0
20260831040506 57 275 8.0 11.0 0.00 0.12 0.00 1004.0
20260831033506 57 296 5.0 7.0 0.00 0.12 0.00 1004.0
20260831030506 57 296 5.0 7.0 0.00 0.12 0.00 1004.0
20260831023505 58 349 4.0 6.0 0.00 0.12 0.00 1004.0
20260831020505 58 349 4.0 6.0 0.00 0.12 0.00 1004.0
20260831013505 58 360 5.0 7.0 0.00 0.12 0.00 1004.0
20260831010505 58 360 5.0 7.0 0.00 0.12 0.00 1004.0
20260831003505 58 15 4.0 5.0 0.00 0.12 0.00 1004.0
20260831000505 58 261 3.0 5.0 0.00 0.00 0.00 1004.0
20260830233505 59 165 2.0 3.0 0.00 0.00 0.00 1004.0
20260830230505 59 165 2.0 3.0 0.00 0.00 0.00 1004.0
20260830223505 59 116 3.0 4.0 0.00 0.00 0.00 1004.0
20260830220505 59 116 3.0 4.0 0.00 0.00 0.00 1004.0
20260830213506 60 122 2.0 3.0 0.00 0.00 0.00 1004.0
20260830210506 60 122 2.0 3.0 0.00 0.00 0.00 1004.0
20260830203506 60 118 2.0 3.0 0.00 0.00 0.00 1004.0
20260830200506 60 118 2.0 3.0 0.00 0.00 0.00 1004.0
20260830193506 60 122 1.0 2.0 0.00 0.00 0.00 1004.0
20260830190506 60 122 1.0 2.0 0.00 0.00 0.00 1004.0
20260830183505 60 138 4.0 4.0 0.00 0.00 0.00 1005.0
20260830180506 60 89 4.0 6.0 0.00 0.12 0.00 1004.0
20260830173505 60 105 7.0 9.0 0.00 0.12 0.00 1004.0
20260830170505 60 105 7.0 9.0 0.00 0.12 0.00 1004.0
20260830163505 60 94 5.0 6.0 0.00 0.12 0.00 1004.0
20260830160505 60 94 5.0 6.0 0.00 0.12 0.00 1004.0
20260830153506 61 69 4.0 6.0 0.00 0.12 0.00 1005.0
20260830150505 61 69 4.0 6.0 0.00 0.12 0.00 1005.0
20260830143506 61 71 6.0 8.0 0.00 0.12 0.00 1005.0
20260830140505 61 71 6.0 8.0 0.00 0.12 0.00 1005.0
20260830133506 60 91 9.0 12.0 0.00 0.12 0.00 1006.0
20260830130506 60 91 9.0 12.0 0.00 0.12 0.00 1006.0
20260830123506 59 85 12.0 17.0 0.00 0.12 0.00 1006.0
20260830120506 60 85 10.0 13.0 0.00 0.12 0.00 1005.0
20260830113506 60 101 11.0 14.0 0.00 0.12 0.00 1006.0
20260830110506 60 101 11.0 14.0 0.00 0.12 0.00 1006.0
20260830103505 60 103 12.0 15.0 0.00 0.12 0.00 1006.0
20260830100506 60 103 12.0 15.0 0.00 0.12 0.00 1006.0
20260830093505 59 103 11.0 15.0 0.00 0.12 0.00 1006.0
20260830090505 59 103 11.0 15.0 0.00 0.07 0.00 1006.0
20260830083505 59 106 11.0 14.0 0.00 0.07 0.00 1006.0
20260830080505 59 106 11.0 14.0 0.00 0.07 0.00 1006.0
20260830073506 59 108 10.0 13.0 0.00 0.07 0.00 1006.0
20260830070506 59 108 10.0 13.0 0.00 0.07 0.00 1006.0
20260830063506 58 96 10.0 13.0 0.00 0.07 0.00 1006.0
20260830060506 58 92 10.0 13.0 0.00 0.07 0.00 1006.0
20260830053506 58 94 9.0 12.0 0.00 0.07 0.00 1006.0